Martha's Vineyard, MA

6:58 AM EDT on June 28, 2017 (GMT -0400)
Martha's Vineyard

Weather History for KMVY - December, 2013

Change the Weather History Date:

Friday, December 20, 2013

  Actual Average Record
Temperature  
Mean Temperature 42 °F -  
Max Temperature 55 °F 40 °F 55 °F (1967)
Min Temperature 30 °F 25 °F 9 °F (1960)
Degree Days  
Heating Degree Days 22    
Moisture  
Dew Point 39 °F    
Average Humidity 78    
Maximum Humidity 92    
Minimum Humidity 59    
Precipitation  
Precipitation 0.00 in - - ()
Sea Level Pressure  
Sea Level Pressure 30.06 in    
Wind  
Wind Speed 5 mph (SW)    
Max Wind Speed 15 mph    
Max Gust Speed 25 mph    
Visibility 9 miles    
Events      
Averages and records for this station are not official NWS values.
T = Trace of Precipitation, MM = Missing Value Source: NWS Daily Summary

Daily Weather History Graph

Daily Weather History Graph

Search for Another Location

Airport or City:

Trip Planner

Search our weather history database for the weather conditions in past years. The results will help you decide how hot, cold, wet, or windy it might be!

Date:

Astronomy

Dec. 20, 2013 Rise Set
Actual Time 7:04 AM EST 4:15 PM EST
Civil Twilight 6:33 AM EST 4:47 PM EST
Nautical Twilight 5:58 AM EST 5:22 PM EST
Astronomical Twilight 5:24 AM EST 5:55 PM EST
Moon 7:35 PM EST (12/20) 8:55 AM EST (12/20)
Length of Visible Light 10h 13m
Length of Day
9h 10m
Waning Gibbous, 90% of the Moon is Illuminated
Dec 20
Waning Gibbous
Dec 25
Last Quarter
Jan 1
New
Jan 7
First Quarter
Jan 15
Full

Hourly Weather History & Observations

Time (EST) Temp. Windchill Dew Point Humidity Pressure Visibility Wind Dir Wind Speed Gust Speed Precip Events Conditions
12:53 AM 41.0 °F - 32.0 °F 70% 30.14 in 10.0 mi Calm Calm - N/A   Clear
1:53 AM 35.1 °F - 28.9 °F 78% 30.14 in 10.0 mi Calm Calm - N/A   Clear
2:53 AM 35.1 °F - 28.9 °F 78% 30.14 in 10.0 mi Calm Calm - N/A   Clear
3:53 AM 34.0 °F - 28.9 °F 82% 30.13 in 10.0 mi Calm Calm - N/A   Mostly Cloudy
4:53 AM 30.9 °F - 27.0 °F 85% 30.14 in 7.0 mi Calm Calm - N/A   Clear
5:53 AM 32.0 °F - 30.0 °F 92% 30.14 in 7.0 mi Calm Calm - N/A   Clear
6:53 AM 35.1 °F 32.2 °F 32.0 °F 89% 30.14 in 4.0 mi SE 3.5 mph - N/A   Clear
7:53 AM 42.1 °F 37.7 °F 37.0 °F 82% 30.12 in 10.0 mi SSE 6.9 mph - N/A   Clear
8:53 AM 48.9 °F - 44.1 °F 83% 30.11 in 10.0 mi South 9.2 mph - N/A   Clear
9:53 AM 52.0 °F - 45.0 °F 77% 30.10 in 10.0 mi SSW 11.5 mph - N/A   Clear
10:53 AM 53.1 °F - 45.0 °F 74% 30.06 in 10.0 mi SSW 12.7 mph - N/A   Clear
11:53 AM 55.0 °F - 45.0 °F 69% 30.03 in 10.0 mi SW 15.0 mph 23.0 mph N/A   Clear
12:53 PM 53.1 °F - 42.1 °F 66% 30.00 in 10.0 mi SW 13.8 mph 23.0 mph N/A   Clear
1:53 PM 54.0 °F - 39.9 °F 59% 30.00 in 10.0 mi WSW 15.0 mph 25.3 mph N/A   Clear
2:53 PM 52.0 °F - 41.0 °F 66% 30.00 in 10.0 mi WSW 10.4 mph 20.7 mph N/A   Clear
3:53 PM 51.1 °F - 42.1 °F 71% 30.00 in 10.0 mi SW 9.2 mph 20.7 mph N/A   Clear
4:53 PM 50.0 °F - 42.1 °F 74% 30.00 in 10.0 mi WSW 11.5 mph 18.4 mph N/A   Clear
5:53 PM 50.0 °F - 43.0 °F 77% 30.01 in 10.0 mi WSW 9.2 mph - N/A   Clear
6:53 PM 48.9 °F - 43.0 °F 80% 30.02 in 10.0 mi WSW 8.1 mph - N/A   Clear
7:53 PM 48.9 °F - 44.1 °F 83% 30.01 in 9.0 mi SW 9.2 mph - N/A   Clear
8:53 PM 50.0 °F - 45.0 °F 83% 30.01 in 9.0 mi SW 9.2 mph - N/A   Clear
9:53 PM 51.1 °F - 46.0 °F 83% 30.04 in 10.0 mi SW 12.7 mph 20.7 mph N/A   Clear
10:53 PM 51.1 °F - 46.9 °F 86% 30.01 in 10.0 mi SW 12.7 mph - N/A   Clear
11:53 PM 51.1 °F - 48.0 °F 89% 30.01 in 9.0 mi SW 9.2 mph - N/A   Mostly Cloudy